Location: Newark
(34.2872°N, 118.4389°W)
Time: 10:41:23
(UTC+00:00)

N. Korean satellite - Visible Passes

Search period start: 22 January 2020 00:00
Search period end: 01 February 2020 00:00
Orbit: 454 x 507 km, 97.2° (Epoch: 21 January)

Date Brightness Start Highest point End Pass type
(mag) Time Alt. Az. Time Alt. Az. Time Alt. Az.
22 Jan 9.8 01:54:10 10° SW 01:56:11 15° W 01:58:12 10° WNW visible
22 Jan 7.6 13:22:11 10° NNE 13:25:40 48° E 13:29:09 10° S visible
23 Jan 9.2 12:57:19 10° NE 13:00:06 21° E 13:02:55 10° SSE visible
23 Jan 8.0 14:30:53 10° NNW 14:33:19 18° WNW 14:35:46 10° WSW visible
24 Jan 7.0 14:04:38 10° N 14:07:58 37° WNW 14:11:20 10° SW visible
25 Jan 6.5 13:38:56 10° NNE 13:42:32 89° E 13:46:11 10° SSW visible
26 Jan 9.6 01:45:00 10° SW 01:47:30 19° W 01:50:02 10° NW visible
26 Jan 8.2 13:13:41 10° NNE 13:17:03 36° E 13:20:25 10° SSE visible
27 Jan 9.6 12:49:03 10° NE 12:51:27 17° E 12:53:52 10° SE visible
27 Jan 7.8 14:21:53 10° NNW 14:24:45 22° WNW 14:27:38 10° SW visible
28 Jan 6.7 13:55:52 10° N 13:59:23 50° WNW 14:02:55 10° SSW visible
29 Jan 10.2 02:03:23 10° WSW 02:04:27 11° W 02:05:31 10° WNW visible
29 Jan 7.0 13:30:19 10° NNE 13:33:55 67° E 13:37:34 10° S visible
30 Jan 8.7 13:05:12 10° NE 13:08:23 28° E 13:11:35 10° SSE visible
31 Jan 10.0 12:40:58 10° ENE 12:42:46 13° E 12:44:35 10° ESE visible
31 Jan 7.4 14:12:58 10° NNW 14:16:10 29° WNW 14:19:23 10° SW visible
